Location: Isle of Man Observatory
(54.1776°N, 4.6264°W)
Time: 11:07:10
(UTC+02:00)

Amateur Radio Satellites - All Passes

Search period start: 30 April 2017 10:37
Search period end: 01 May 2017 10:37
Location: Isle of Man Observatory, 54.1776°N, 4.6264°W

Satellite Date Start Highest point End Downlink Frequencies (MHz)
Time Altitude Azimuth
XW-2C 30 Apr 10:39:08 10:40:04 11° 307° (NW) 10:40:59 145.795 - 145.815
AO-7 30 Apr 10:39:36 10:43:48 15° 345° (NNW) 10:48:02 .
Tancredo 1 30 Apr 10:39:55 10:42:50 39° 165° (SSE) 10:45:46 437.200
AAUSAT CUBESAT 2 30 Apr 10:40:15 10:44:27 67° 102° (ESE) 10:48:37 437.432
SO-50 30 Apr 10:41:57 10:45:48 26° 344° (NNW) 10:49:37 436.795
DELFI C3 30 Apr 10:51:35 10:53:36 13° 86° (E) 10:55:35 145.870
UWE-3 30 Apr 10:54:02 10:58:15 79° 105° (ESE) 11:02:30 435.000/436.395/437.385
PCSat 30 Apr 10:55:34 11:00:58 58° 42° (NE) 11:06:19 145.827
RS-15 30 Apr 11:05:26 11:17:42 68° 329° (NNW) 11:30:05 29.354- 29.394
CUTE 1.7 + AOD 2 30 Apr 11:06:54 11:10:40 30° 297° (WNW) 11:14:25 437.475
CUBEBUG 2 30 Apr 11:15:31 11:19:29 44° 292° (WNW) 11:23:30 437.445
POLYITAN 1 30 Apr 11:15:32 11:17:19 13° 51° (NE) 11:19:06 437.675
SEEDS 30 Apr 11:19:33 11:23:22 32° 296° (WNW) 11:27:10 437.485
QB50P2 30 Apr 11:21:41 11:24:02 15° 54° (NE) 11:26:23 145.880/145.840
CUTE-I 30 Apr 11:22:47 11:25:24 14° 315° (NW) 11:28:01 437.470
TIGRISAT 30 Apr 11:24:08 11:28:27 86° 255° (WSW) 11:32:45 435.000
ISS 30 Apr 11:30:21 11:33:33 51° 172° (S) 11:36:44 437.550
HO-68 30 Apr 11:38:05 11:44:46 43° 304° (WNW) 11:51:26 435.675
O/OREOS (USA 219) 30 Apr 11:39:00 11:43:30 56° 114° (ESE) 11:48:02 437.305
NANOSAT C BR1 30 Apr 11:39:10 11:41:58 18° 56° (NE) 11:44:45 145.865
PRISM 30 Apr 11:39:53 11:43:46 37° 263° (W) 11:47:41 437.425
FO-29 30 Apr 11:40:46 11:46:41 78° 255° (WSW) 11:52:04 435.910
ZACube-1 30 Apr 11:40:53 11:45:04 62° 289° (WNW) 11:49:18 437.345
AO-73 30 Apr 11:45:27 11:49:37 62° 289° (WNW) 11:53:51 145.935
UNISAT 6 30 Apr 11:46:44 11:50:58 51° 260° (W) 11:55:10 437.425
Oscar 11 30 Apr 11:56:19 12:00:37 59° 289° (WNW) 12:04:54 .
DUCHIFAT 1 30 Apr 12:05:59 12:09:26 26° 61° (ENE) 12:12:54 145.980
EO-79 30 Apr 12:08:19 12:12:01 31° 63° (ENE) 12:15:44 145.935-145.965
OBJECT BX 30 Apr 12:09:12 12:12:49 54° 101° (E) 12:16:24 145.990 - 145.960
AIST 2D 30 Apr 12:15:09 12:18:32 50° 71° (ENE) 12:21:56 435.315
Tancredo 1 30 Apr 12:15:27 12:18:29 52° 184° (S) 12:21:31 437.200
AAUSAT CUBESAT 2 30 Apr 12:16:28 12:19:31 20° 302° (WNW) 12:22:34 437.432
ESTCUBE 1 30 Apr 12:21:22 12:22:05 10° 82° (E) 12:22:48 437.505/2401.250
SO-50 30 Apr 12:23:53 12:27:33 23° 9° (N) 12:31:11 436.795
DELFI C3 30 Apr 12:24:55 12:28:58 83° 283° (WNW) 12:32:58 145.870
AO-7 30 Apr 12:29:25 12:33:22 14° 12° (NNE) 12:37:20 .
UWE-3 30 Apr 12:31:30 12:34:14 17° 303° (WNW) 12:37:00 435.000/436.395/437.385
PCSat 30 Apr 12:39:15 12:44:13 37° 244° (WSW) 12:49:09 145.827
POLYITAN 1 30 Apr 12:48:11 12:52:22 68° 72° (ENE) 12:56:33 437.675
BUGSAT 1 30 Apr 12:52:11 12:55:36 26° 62° (ENE) 12:58:59 437.445
QB50P2 30 Apr 12:54:59 12:59:12 84° 73° (ENE) 13:03:27 145.880/145.840
LO-87 30 Apr 13:00:22 13:03:37 32° 96° (E) 13:06:49 145.935 - 145.965
AO-85 30 Apr 13:01:14 13:04:00 17° 117° (ESE) 13:06:42 145.980
Oscar 19 30 Apr 13:01:20 13:05:01 20° 52° (NE) 13:08:43 437.125/150
TIGRISAT 30 Apr 13:03:53 13:05:50 13° 274° (W) 13:07:47 435.000
ISS 30 Apr 13:06:40 13:09:49 45° 193° (SSW) 13:12:58 437.550
NANOSAT C BR1 30 Apr 13:12:59 13:17:12 78° 257° (WSW) 13:21:25 145.865
ZACube-1 30 Apr 13:19:07 13:20:35 12° 309° (NW) 13:22:03 437.345
O/OREOS (USA 219) 30 Apr 13:19:08 13:23:13 30° 316° (NW) 13:27:18 437.305
RS-15 30 Apr 13:20:30 13:32:32 52° 1° (N) 13:44:24 29.354- 29.394
AO-73 30 Apr 13:23:40 13:25:05 11° 309° (NW) 13:26:30 145.935
HO-68 30 Apr 13:26:52 13:30:48 16° 328° (NNW) 13:34:45 435.675
FO-29 30 Apr 13:29:23 13:32:39 15° 274° (W) 13:35:46 435.910
Gurwin Techsat 1B 30 Apr 13:33:36 13:37:40 23° 53° (NE) 13:41:45 435.225
Oscar 11 30 Apr 13:34:25 13:35:54 12° 310° (NW) 13:37:24 .
DUCHIFAT 1 30 Apr 13:40:53 13:44:55 47° 260° (W) 13:48:59 145.980
OBJECT BX 30 Apr 13:43:34 13:46:11 19° 300° (WNW) 13:48:49 145.990 - 145.960
EO-79 30 Apr 13:43:48 13:47:43 38° 262° (W) 13:51:41 145.935-145.965
AIST 2D 30 Apr 13:49:44 13:52:02 17° 270° (W) 13:54:22 435.315
Tancredo 1 30 Apr 13:51:22 13:54:02 26° 204° (SSW) 13:56:41 437.200
VELOX 1 30 Apr 13:51:51 13:55:17 22° 91° (E) 13:58:42 145.980
YUBILEINY 30 Apr 13:54:50 14:00:24 18° 39° (NE) 14:05:56 435.215
ESTCUBE 1 30 Apr 13:55:16 13:59:49 65° 103° (ESE) 14:04:20 437.505/2401.250
DELFI C3 30 Apr 14:01:04 14:03:07 14° 306° (NW) 14:05:10 145.870
SO-50 30 Apr 14:04:38 14:09:00 45° 33° (NNE) 14:13:20 436.795
AO-7 30 Apr 14:16:56 14:23:31 28° 39° (NE) 14:30:07 .
SPROUT 30 Apr 14:24:14 14:28:15 38° 97° (E) 14:32:13 437.525
POLYITAN 1 30 Apr 14:25:48 14:28:37 17° 271° (W) 14:31:27 437.675
BUGSAT 1 30 Apr 14:26:51 14:30:48 44° 261° (W) 14:34:43 437.445
BEESAT 3 30 Apr 14:27:13 14:30:25 24° 119° (ESE) 14:33:41 437.485
DX 1 30 Apr 14:30:51 14:34:11 21° 91° (E) 14:37:29 434.975-435.025
QB50P2 30 Apr 14:33:17 14:35:36 14° 273° (W) 14:37:55 145.880/145.840
LO-87 30 Apr 14:33:56 14:37:00 27° 296° (WNW) 14:40:03 145.935 - 145.965
ITAMSAT 1 30 Apr 14:36:31 14:39:36 16° 48° (NE) 14:42:41 435.822/435.867
BEESAT 2 30 Apr 14:36:33 14:38:35 14° 113° (ESE) 14:40:36 435.950
Oscar 19 30 Apr 14:38:30 14:43:41 87° 73° (ENE) 14:48:56 437.125/150
AO-85 30 Apr 14:39:47 14:43:56 84° 320° (NW) 14:47:55 145.980
50 SAT 30 Apr 14:41:37 14:44:50 33° 97° (E) 14:48:01 437.505
ISS 30 Apr 14:43:28 14:45:49 18° 212° (SSW) 14:48:09 437.550
NANOSAT C BR1 30 Apr 14:52:19 14:53:39 11° 275° (W) 14:54:59 145.865
O/OREOS (USA 219) 30 Apr 15:02:43 15:04:10 11° 340° (NNW) 15:05:37 437.305
Gurwin Techsat 1B 30 Apr 15:11:45 15:17:05 83° 255° (WSW) 15:22:27 435.225
UKube-1 30 Apr 15:25:11 15:29:23 45° 100° (E) 15:33:30 .
VELOX 1 30 Apr 15:27:44 15:32:06 59° 291° (WNW) 15:36:27 145.980
ESTCUBE 1 30 Apr 15:32:42 15:36:15 23° 302° (WNW) 15:39:47 437.505/2401.250
RS-15 30 Apr 15:34:52 15:47:18 70° 33° (NNE) 15:59:17 29.354- 29.394
SO-50 30 Apr 15:45:12 15:49:31 45° 234° (SW) 15:53:49 436.795
YUBILEINY 30 Apr 15:51:16 15:59:49 52° 68° (ENE) 16:08:20 435.215
SPROUT 30 Apr 16:00:20 16:04:05 31° 297° (WNW) 16:07:50 437.525
BEESAT 3 30 Apr 16:03:45 16:07:42 64° 319° (NW) 16:11:43 437.485
DX 1 30 Apr 16:06:25 16:10:44 59° 291° (WNW) 16:15:01 434.975-435.025
AO-7 30 Apr 16:06:55 16:15:09 73° 63° (ENE) 16:23:26 .
BEESAT 2 30 Apr 16:11:41 16:15:40 78° 134° (SE) 16:19:44 435.950
ITAMSAT 1 30 Apr 16:13:05 16:18:13 67° 69° (ENE) 16:23:23 435.822/435.867
BEESAT 30 Apr 16:14:01 16:17:12 18° 88° (E) 16:20:24 436.000
50 SAT 30 Apr 16:14:44 16:17:40 25° 297° (WNW) 16:20:34 437.505
Oscar 19 30 Apr 16:20:13 16:23:44 18° 273° (W) 16:27:16 437.125/150
AO-85 30 Apr 16:21:26 16:24:49 25° 338° (NNW) 16:28:08 145.980
Gurwin Techsat 1B 30 Apr 16:54:38 16:57:53 16° 275° (W) 17:01:08 435.225
ITUPSAT 1 30 Apr 16:56:38 17:01:06 37° 97° (E) 17:05:32 437.325
HO-68 30 Apr 16:58:40 17:00:12 11° 21° (NNE) 17:01:45 435.675
UKube-1 30 Apr 17:01:32 17:05:15 28° 299° (WNW) 17:08:56 .
VELOX 1 30 Apr 17:06:00 17:07:42 12° 311° (NW) 17:09:23 145.980
MOZHAYETS 4 30 Apr 17:08:23 17:12:21 28° 93° (E) 17:16:20
DOVE 4 30 Apr 17:35:19 17:39:05 21° 56° (NE) 17:42:47 437.250
BEESAT 3 30 Apr 17:42:45 17:45:59 23° 342° (NNW) 17:49:15 437.485
DX 1 30 Apr 17:44:26 17:46:05 12° 311° (NW) 17:47:44 434.975-435.025
RS-15 30 Apr 17:47:56 17:59:49 59° 241° (WSW) 18:11:12 29.354- 29.394
YUBILEINY 30 Apr 17:48:22 17:56:42 51° 272° (W) 18:05:03 435.215
BEESAT 2 30 Apr 17:50:18 17:53:51 29° 335° (NNW) 17:57:26 435.950
BEESAT 30 Apr 17:50:48 17:55:36 81° 290° (WNW) 18:00:23 436.000
CUTE-I 30 Apr 17:51:50 17:55:43 21° 52° (NE) 17:59:37 437.470
ITAMSAT 1 30 Apr 17:54:01 17:58:10 24° 269° (W) 18:02:20 435.822/435.867
XW-2D 30 Apr 17:58:53 18:00:59 15° 57° (ENE) 18:03:07 145.860 - 145.880
AO-7 30 Apr 18:01:11 18:08:37 36° 265° (W) 18:16:06 .
AO-85 30 Apr 18:03:38 18:06:24 18° 3° (N) 18:09:10 145.980
XW-2B 30 Apr 18:05:38 18:07:59 16° 58° (ENE) 18:10:22 145.730 - 145.750
KAITUO 1B 30 Apr 18:05:46 18:07:40 14° 56° (NE) 18:09:35 145.475/437.950
CUBESAT XI-V 30 Apr 18:10:24 18:14:14 24° 91° (E) 18:18:01 437.345
XW-2C 30 Apr 18:17:13 18:20:01 20° 60° (ENE) 18:22:50 145.795 - 145.815
LilacSat-2 30 Apr 18:20:44 18:23:43 22° 62° (ENE) 18:26:43 437.200
O/OREOS (USA 219) 30 Apr 18:24:21 18:27:20 17° 32° (NNE) 18:30:19 437.305
KKS-1 30 Apr 18:27:32 18:31:28 30° 95° (E) 18:35:21 437.445
ITUPSAT 1 30 Apr 18:34:32 18:38:58 39° 297° (WNW) 18:43:25 437.325
NUDT-PHONESAT 30 Apr 18:37:58 18:40:59 25° 63° (ENE) 18:44:02 437.300
XW-2F 30 Apr 18:38:57 18:42:13 30° 65° (ENE) 18:45:32 145.980 - 146.000
HO-68 30 Apr 18:39:57 18:45:37 26° 46° (NE) 18:51:17 435.675
MOZHAYETS 4 30 Apr 18:45:17 18:49:44 48° 293° (WNW) 18:54:11
STARS 30 Apr 18:47:48 18:51:17 23° 92° (E) 18:54:44 437.465
CUTE 1.7 + AOD 2 30 Apr 18:56:57 18:58:41 12° 51° (NE) 19:00:25 437.475
SEEDS 30 Apr 19:09:26 19:10:42 11° 50° (NE) 19:11:58 437.485
DOVE 4 30 Apr 19:10:58 19:16:15 87° 256° (WSW) 19:21:20 437.250
XW-2A 30 Apr 19:17:06 19:18:34 12° 57° (ENE) 19:20:03 145.665 - 145.685
BEESAT 3 30 Apr 19:21:56 19:24:50 18° 6° (N) 19:27:43 437.485
BEESAT 30 Apr 19:29:40 19:32:43 17° 308° (NW) 19:35:45 436.000
CUTE-I 30 Apr 19:29:47 19:35:09 89° 73° (ENE) 19:40:31 437.470
BEESAT 2 30 Apr 19:29:52 19:32:45 18° 358° (N) 19:35:38 435.950
XW-2D 30 Apr 19:30:56 19:34:41 80° 256° (WSW) 19:38:29 145.860 - 145.880
KAITUO 1B 30 Apr 19:37:27 19:41:09 85° 256° (WSW) 19:44:54 145.475/437.950
XW-2B 30 Apr 19:38:01 19:41:46 70° 258° (WSW) 19:45:32 145.730 - 145.750
AO-85 30 Apr 19:44:24 19:47:54 30° 27° (NNE) 19:51:27 145.980
CUBESAT XI-V 30 Apr 19:47:18 19:51:58 59° 291° (WNW) 19:56:36 437.345
YUBILEINY 30 Apr 19:47:46 19:51:17 13° 296° (WNW) 19:54:48 435.215
XW-2C 30 Apr 19:50:16 19:53:56 51° 260° (W) 19:57:38 145.795 - 145.815
LilacSat-2 30 Apr 19:54:10 19:57:47 45° 261° (W) 20:01:28 437.200
RS-15 30 Apr 20:02:18 20:09:23 18° 267° (W) 20:16:19 29.354- 29.394
AAUSAT CUBESAT 2 30 Apr 20:02:54 20:05:36 17° 56° (NE) 20:08:19 437.432
O/OREOS (USA 219) 30 Apr 20:03:10 20:07:44 59° 55° (NE) 20:12:16 437.305
KKS-1 30 Apr 20:03:57 20:08:10 42° 294° (WNW) 20:12:20 437.445
NUDT-PHONESAT 30 Apr 20:11:21 20:14:47 38° 262° (W) 20:18:15 437.300
XW-2F 30 Apr 20:12:59 20:16:21 31° 264° (W) 20:19:46 145.980 - 146.000
UWE-3 30 Apr 20:22:13 20:25:25 22° 60° (ENE) 20:28:37 435.000/436.395/437.385
STARS 30 Apr 20:23:40 20:27:57 54° 292° (WNW) 20:32:12 437.465
MOZHAYETS 4 30 Apr 20:24:57 20:25:53 11° 313° (NW) 20:26:50
HO-68 30 Apr 20:25:18 20:32:28 81° 68° (ENE) 20:39:41 435.675
STRAND 1 30 Apr 20:27:17 20:30:11 15° 85° (E) 20:33:04 437.568
CUTE 1.7 + AOD 2 30 Apr 20:29:32 20:33:44 66° 72° (ENE) 20:37:59 437.475
SEEDS 30 Apr 20:41:24 20:45:32 59° 71° (ENE) 20:49:44 437.485
CUBEBUG 2 30 Apr 20:43:23 20:47:27 47° 68° (ENE) 20:51:29 437.445
XW-2A 30 Apr 20:47:30 20:50:51 78° 258° (WSW) 20:54:13 145.665 - 145.685
DOVE 4 30 Apr 20:51:16 20:54:36 17° 274° (W) 20:57:53 437.250
NO-84 30 Apr 20:56:57 21:00:16 34° 149° (SSE) 21:03:20 435.350 FM
BEESAT 3 30 Apr 20:59:47 21:03:29 33° 29° (NNE) 21:07:09 437.485
ZACube-1 30 Apr 21:07:17 21:11:00 32° 64° (ENE) 21:14:43 437.345
BEESAT 2 30 Apr 21:08:17 21:11:43 25° 22° (NNE) 21:15:09 435.950
AO-73 30 Apr 21:11:33 21:15:16 32° 65° (ENE) 21:18:59 145.935
CUTE-I 30 Apr 21:12:19 21:15:56 18° 273° (W) 21:19:35 437.470
KAITUO 1B 30 Apr 21:15:18 21:15:49 10° 275° (W) 21:16:19 145.475/437.950
Oscar 11 30 Apr 21:21:35 21:25:32 36° 65° (ENE) 21:29:30 .
AO-85 30 Apr 21:24:40 21:28:35 68° 229° (SW) 21:32:37 145.980
CUBESAT XI-V 30 Apr 21:26:22 21:28:26 13° 311° (NW) 21:30:30 437.345
AAUSAT CUBESAT 2 30 Apr 21:36:23 21:40:33 81° 254° (WSW) 21:44:46 437.432
M-CUBED/EXP-1 PRIME 30 Apr 21:36:42 21:40:12 25° 98° (E) 21:43:27 437.505
DELFI C3 30 Apr 21:42:56 21:45:55 20° 59° (ENE) 21:48:54 145.870
O/OREOS (USA 219) 30 Apr 21:43:08 21:46:49 24° 256° (WSW) 21:50:27 437.305
UWE-3 30 Apr 21:57:28 22:01:35 57° 259° (W) 22:05:42 435.000/436.395/437.385
STARS 30 Apr 22:02:07 22:03:24 11° 312° (NW) 22:04:40 437.465
STRAND 1 30 Apr 22:05:04 22:10:13 81° 105° (ESE) 22:15:20 437.568
CUTE 1.7 + AOD 2 30 Apr 22:07:04 22:10:02 18° 271° (W) 22:13:00 437.475
HO-68 30 Apr 22:15:03 22:20:59 28° 270° (W) 22:26:59 435.675
SEEDS 30 Apr 22:18:30 22:21:37 20° 270° (W) 22:24:46 437.485
CUBEBUG 2 30 Apr 22:20:49 22:24:19 24° 267° (W) 22:27:46 437.445
NO-84 30 Apr 22:34:09 22:37:38 88° 352° (N) 22:40:49 435.350 FM
BEESAT 3 30 Apr 22:37:20 22:41:20 61° 230° (SW) 22:45:17 437.485
ZACube-1 30 Apr 22:43:29 22:47:17 34° 264° (W) 22:51:06 437.345
BEESAT 2 30 Apr 22:45:57 22:50:03 80° 42° (NE) 22:54:07 435.950
AO-73 30 Apr 22:47:44 22:51:31 34° 264° (W) 22:55:19 145.935
OBJECT BX 30 Apr 22:53:02 22:56:38 65° 72° (ENE) 23:00:16 145.990 - 145.960
Oscar 11 30 Apr 22:57:47 23:01:42 33° 265° (W) 23:05:40 .
AO-85 30 Apr 23:07:00 23:08:16 11° 248° (WSW) 23:09:34 145.980
TIGRISAT 30 Apr 23:10:15 23:12:03 12° 85° (E) 23:13:50 435.000
M-CUBED/EXP-1 PRIME 30 Apr 23:10:47 23:14:53 46° 300° (WNW) 23:18:39 437.505
PRISM 30 Apr 23:14:43 23:17:46 19° 91° (E) 23:20:46 437.425
AAUSAT CUBESAT 2 30 Apr 23:15:16 23:16:45 12° 276° (W) 23:18:14 437.432
DELFI C3 30 Apr 23:16:25 23:20:22 59° 259° (W) 23:24:22 145.870
ESTCUBE 1 30 Apr 23:25:38 23:29:09 23° 58° (ENE) 23:32:41 437.505/2401.250
UNISAT 6 30 Apr 23:31:45 23:34:59 20° 91° (E) 23:38:14 437.425
LO-87 30 Apr 23:42:31 23:45:54 37° 68° (ENE) 23:49:16 145.935 - 145.965
STRAND 1 30 Apr 23:45:01 23:48:53 22° 306° (NW) 23:52:45 437.568
SPROUT 30 Apr 23:50:45 23:52:40 13° 52° (NE) 23:54:35 437.525
NO-84 01 May 00:11:57 00:15:14 81° 8° (N) 00:18:16 435.350 FM
BEESAT 3 01 May 00:17:23 00:18:07 10° 250° (WSW) 00:18:52 437.485
BEESAT 2 01 May 00:24:28 00:27:22 19° 244° (WSW) 00:30:15 435.950
FO-29 01 May 00:26:52 00:31:55 48° 99° (E) 00:37:14 435.910
OBJECT BX 01 May 00:28:42 00:30:45 14° 271° (W) 00:32:50 145.990 - 145.960
TIGRISAT 01 May 00:45:08 00:49:27 83° 104° (ESE) 00:53:48 435.000
M-CUBED/EXP-1 PRIME 01 May 00:47:08 00:48:18 11° 321° (NW) 00:49:28 437.505
PRISM 01 May 00:49:18 00:53:25 60° 291° (WNW) 00:57:29 437.425
UKube-1 01 May 00:51:54 00:54:36 16° 54° (NE) 00:57:18 .
NANOSAT C BR1 01 May 00:52:36 00:53:47 11° 85° (E) 00:54:57 145.865
VELOX 1 01 May 00:54:58 00:59:11 43° 66° (ENE) 01:03:25 145.980
ESTCUBE 1 01 May 01:01:06 01:05:35 64° 257° (WSW) 01:10:08 437.505/2401.250
AIST 2D 01 May 01:06:56 01:09:54 25° 94° (E) 01:12:53 435.315
UNISAT 6 01 May 01:07:51 01:12:04 59° 290° (WNW) 01:16:21 437.425
LO-87 01 May 01:16:30 01:19:28 23° 266° (W) 01:22:26 145.935 - 145.965
DUCHIFAT 1 01 May 01:18:36 01:21:27 18° 89° (E) 01:24:17 145.980
50 SAT 01 May 01:20:21 01:23:37 38° 68° (ENE) 01:26:55 437.505
EO-79 01 May 01:21:41 01:24:59 22° 92° (E) 01:28:16 145.935-145.965
SPROUT 01 May 01:23:36 01:27:50 69° 72° (ENE) 01:32:05 437.525
DX 1 01 May 01:32:13 01:36:21 42° 65° (ENE) 01:40:30 434.975-435.025
NO-84 01 May 01:49:41 01:52:35 36° 210° (SSW) 01:55:18 435.350 FM
POLYITAN 1 01 May 02:01:52 02:05:58 49° 100° (E) 02:10:04 437.675
BUGSAT 1 01 May 02:02:26 02:05:01 16° 89° (E) 02:07:34 437.445
QB50P2 01 May 02:08:42 02:12:55 61° 102° (ESE) 02:17:04 145.880/145.840
FO-29 01 May 02:12:21 02:17:00 34° 300° (WNW) 02:21:49 435.910
TIGRISAT 01 May 02:22:51 02:25:38 17° 304° (NW) 02:28:26 435.000
UKube-1 01 May 02:25:42 02:30:03 89° 72° (ENE) 02:34:25 .
NANOSAT C BR1 01 May 02:26:03 02:30:16 77° 105° (ESE) 02:34:27 145.865
PRISM 01 May 02:26:36 02:27:53 11° 310° (NW) 02:29:11 437.425
VELOX 1 01 May 02:31:51 02:35:47 30° 265° (W) 02:39:44 145.980
ITUPSAT 1 01 May 02:34:02 02:37:16 18° 53° (NE) 02:40:30 437.325
AIST 2D 01 May 02:39:59 02:43:11 33° 293° (WNW) 02:46:24 435.315
ESTCUBE 1 01 May 02:42:53 02:43:20 10° 278° (W) 02:43:48 437.505/2401.250
MOZHAYETS 4 01 May 02:42:57 02:44:36 12° 48° (NE) 02:46:15
Oscar 19 01 May 02:43:57 02:47:39 19° 88° (E) 02:51:20 437.125/150
UNISAT 6 01 May 02:46:36 02:47:58 11° 310° (NW) 02:49:22 437.425
DUCHIFAT 1 01 May 02:53:24 02:57:34 67° 289° (WNW) 03:01:43 145.980
50 SAT 01 May 02:53:56 02:56:42 22° 267° (W) 02:59:29 437.505
EO-79 01 May 02:56:57 03:01:03 53° 291° (WNW) 03:05:09 145.935-145.965
SPROUT 01 May 03:01:20 03:04:13 18° 271° (W) 03:07:08 437.525
DX 1 01 May 03:08:48 03:12:39 30° 265° (W) 03:16:33 434.975-435.025
YUBILEINY 01 May 03:12:55 03:14:45 11° 61° (ENE) 03:16:36 435.215
Gurwin Techsat 1B 01 May 03:21:29 03:25:48 24° 91° (E) 03:30:04 435.225
BEESAT 01 May 03:26:19 03:30:47 42° 64° (ENE) 03:35:17 436.000
PCSat 01 May 03:26:42 03:31:56 50° 121° (ESE) 03:37:11 145.827
BUGSAT 1 01 May 03:36:49 03:40:49 67° 290° (WNW) 03:44:49 437.445
POLYITAN 1 01 May 03:38:06 03:41:33 25° 299° (WNW) 03:44:58 437.675
QB50P2 01 May 03:45:11 03:48:21 21° 302° (WNW) 03:51:32 145.880/145.840
CUBESAT XI-V 01 May 03:46:54 03:47:54 11° 46° (NE) 03:48:56 437.345
KKS-1 01 May 03:58:17 04:00:14 13° 49° (NE) 04:02:12 437.445
AO-7 01 May 04:02:40 04:06:49 14° 80° (E) 04:10:56 .
NANOSAT C BR1 01 May 04:02:41 04:05:30 18° 304° (NW) 04:08:19 145.865
UKube-1 01 May 04:04:26 04:06:43 14° 273° (W) 04:09:02 .
ITUPSAT 1 01 May 04:09:44 04:14:30 89° 78° (ENE) 04:19:18 437.325
MOZHAYETS 4 01 May 04:16:23 04:20:50 56° 69° (ENE) 04:25:21
ITAMSAT 1 01 May 04:20:27 04:23:07 14° 85° (E) 04:25:46 435.822/435.867
Oscar 19 01 May 04:22:23 04:27:39 83° 288° (WNW) 04:32:51 437.125/150
DUCHIFAT 1 01 May 04:30:49 04:32:29 12° 309° (NW) 04:34:10 145.980
EO-79 01 May 04:35:27 04:35:56 10° 311° (NW) 04:36:25 145.935-145.965
Gurwin Techsat 1B 01 May 05:00:56 05:06:14 68° 291° (WNW) 05:11:31 435.225
YUBILEINY 01 May 05:01:02 05:09:04 44° 86° (E) 05:17:09 435.215
BEESAT 01 May 05:04:22 05:08:40 34° 264° (W) 05:13:00 436.000
PCSat 01 May 05:10:14 05:15:28 46° 323° (NW) 05:20:43 145.827
BUGSAT 1 01 May 05:14:02 05:15:28 12° 309° (NW) 05:16:53 437.445
CUBESAT XI-V 01 May 05:19:45 05:24:14 47° 67° (ENE) 05:28:46 437.345
KKS-1 01 May 05:31:34 05:35:59 62° 70° (ENE) 05:40:25 437.445
ITUPSAT 1 01 May 05:50:08 05:53:01 16° 273° (W) 05:55:56 437.325
STARS 01 May 05:50:17 05:54:30 46° 67° (ENE) 05:58:43 437.465
AO-7 01 May 05:53:26 06:01:37 56° 103° (ESE) 06:09:45 .
MOZHAYETS 4 01 May 05:54:40 05:58:20 24° 269° (W) 06:02:02
ITAMSAT 1 01 May 05:58:18 06:03:31 75° 106° (ESE) 06:08:41 435.822/435.867
Oscar 19 01 May 06:02:40 06:06:17 19° 309° (NW) 06:09:52 437.125/150
SO-50 01 May 06:08:40 06:09:53 11° 109° (ESE) 06:11:05 436.795
RS-15 01 May 06:14:28 06:20:04 15° 89° (E) 06:25:40 29.354- 29.394
STRAND 1 01 May 06:14:49 06:15:50 11° 42° (NE) 06:16:52 437.568
Gurwin Techsat 1B 01 May 06:42:04 06:45:20 17° 312° (NW) 06:48:35 435.225
M-CUBED/EXP-1 PRIME 01 May 06:54:39 06:58:05 21° 49° (NE) 07:01:29 437.505
PCSat 01 May 06:55:51 07:00:09 23° 348° (NNW) 07:04:27 145.827
YUBILEINY 01 May 06:57:11 07:05:44 58° 290° (WNW) 07:14:21 435.215
CUBESAT XI-V 01 May 06:57:45 07:01:49 29° 267° (W) 07:05:56 437.345
DOVE 4 01 May 07:04:31 07:07:22 16° 85° (E) 07:10:06 437.250
KKS-1 01 May 07:09:34 07:12:57 21° 269° (W) 07:16:20 437.445
XW-2C 01 May 07:17:43 07:19:06 12° 86° (E) 07:20:28 145.795 - 145.815
LilacSat-2 01 May 07:21:40 07:23:38 13° 87° (E) 07:25:34 437.200
STARS 01 May 07:27:17 07:31:02 27° 266° (W) 07:34:49 437.465
NUDT-PHONESAT 01 May 07:35:54 07:37:55 14° 88° (E) 07:39:54 437.300
ITAMSAT 1 01 May 07:38:26 07:42:32 24° 305° (NW) 07:46:37 435.822/435.867
XW-2F 01 May 07:38:35 07:41:14 18° 90° (E) 07:43:52 145.980 - 146.000
CUTE-I 01 May 07:40:31 07:44:34 22° 89° (E) 07:48:36 437.470
SO-50 01 May 07:44:56 07:49:26 57° 129° (SE) 07:53:55 436.795
AO-7 01 May 07:46:28 07:54:23 50° 305° (NW) 08:02:17 .
STRAND 1 01 May 07:49:02 07:53:48 42° 64° (ENE) 07:58:35 437.568
HO-68 01 May 07:49:36 07:50:25 10° 76° (ENE) 07:51:14 435.675
RS-15 01 May 08:17:48 08:29:16 51° 115° (ESE) 08:40:54 29.354- 29.394
M-CUBED/EXP-1 PRIME 01 May 08:27:19 08:32:01 87° 247° (WSW) 08:36:39 437.505
XW-2D 01 May 08:30:48 08:34:36 60° 101° (E) 08:38:24 145.860 - 145.880
KAITUO 1B 01 May 08:35:51 08:39:34 53° 100° (E) 08:43:18 145.475/437.950
XW-2B 01 May 08:37:53 08:41:42 68° 102° (ESE) 08:45:31 145.730 - 145.750
PCSat 01 May 08:40:59 08:45:20 23° 14° (NNE) 08:49:40 145.827
DOVE 4 01 May 08:41:06 08:45:46 80° 286° (WNW) 08:50:08 437.250
XW-2C 01 May 08:50:02 08:53:53 89° 299° (WNW) 08:57:44 145.795 - 145.815
LilacSat-2 01 May 08:54:33 08:58:26 78° 285° (WNW) 09:02:17 437.200
YUBILEINY 01 May 08:58:58 09:04:53 19° 318° (NW) 09:10:51 435.215
ISS 01 May 09:03:21 09:05:36 17° 147° (SSE) 09:07:50 437.550
FO-29 01 May 09:05:47 09:07:38 12° 43° (NE) 09:09:26 435.910
NUDT-PHONESAT 01 May 09:08:33 09:12:17 71° 287° (WNW) 09:16:01 437.300
XW-2F 01 May 09:11:57 09:15:42 56° 289° (WNW) 09:19:26 145.980 - 146.000
AAUSAT CUBESAT 2 01 May 09:13:47 09:15:02 11° 84° (E) 09:16:17 437.432
CUTE-I 01 May 09:19:53 09:25:13 76° 290° (WNW) 09:30:31 437.470
SO-50 01 May 09:25:48 09:30:07 39° 331° (NNW) 09:34:24 436.795
STRAND 1 01 May 09:28:20 09:33:04 38° 264° (W) 09:37:50 437.568
HO-68 01 May 09:33:12 09:40:08 47° 99° (E) 09:47:01 435.675
XW-2A 01 May 09:35:28 09:38:41 41° 99° (E) 09:41:53 145.665 - 145.685
Tancredo 1 01 May 09:39:23 09:42:07 28° 157° (SSE) 09:44:51 437.200
AO-7 01 May 09:39:46 09:45:25 21° 330° (NNW) 09:51:05 .
UWE-3 01 May 09:40:33 09:43:28 18° 89° (E) 09:46:24 435.000/436.395/437.385
CUTE 1.7 + AOD 2 01 May 09:43:17 09:47:30 53° 100° (E) 09:51:42 437.475
SEEDS 01 May 09:53:56 09:58:03 46° 99° (E) 10:02:10 437.485
CUBEBUG 2 01 May 10:03:27 10:07:26 41° 98° (E) 10:11:27 437.445
M-CUBED/EXP-1 PRIME 01 May 10:04:12 10:07:03 16° 267° (W) 10:09:52 437.505
XW-2D 01 May 10:05:46 10:08:27 19° 301° (WNW) 10:11:09 145.860 - 145.880
PRISM 01 May 10:09:48 10:13:34 34° 64° (ENE) 10:17:22 437.425
KAITUO 1B 01 May 10:10:31 10:13:18 20° 300° (WNW) 10:16:05 145.475/437.950
XW-2B 01 May 10:12:59 10:15:29 17° 302° (WNW) 10:17:59 145.730 - 145.750
TIGRISAT 01 May 10:14:34 10:18:04 25° 61° (ENE) 10:21:34 435.000
DOVE 4 01 May 10:19:59 10:22:42 16° 308° (NW) 10:25:20 437.250
O/OREOS (USA 219) 01 May 10:23:35 10:26:41 18° 101° (E) 10:29:47 437.305
ZACube-1 01 May 10:24:22 10:28:02 27° 94° (E) 10:31:44 437.345
PCSat 01 May 10:24:41 10:29:59 48° 38° (NE) 10:35:14 145.827
XW-2C 01 May 10:25:36 10:27:31 14° 304° (NW) 10:29:26 145.795 - 145.815
AO-73 01 May 10:28:16 10:31:55 27° 94° (E) 10:35:38 145.935
LilacSat-2 01 May 10:30:29 10:32:04 12° 306° (NW) 10:33:40 437.200
